TimeEDT,TemperatureF,Dew PointF,Humidity,Sea Level PressureIn,VisibilityMPH,Wind Direction,Wind SpeedMPH,Gust SpeedMPH,PrecipitationIn,Events,Conditions,WindDirDegrees,DateUTC
12:35 AM,78.8,73.4,83,30.15,10.0,Calm,Calm,-,N/A,,Mostly Cloudy,0,2013-07-30 04:35:00
12:56 AM,78.1,73.9,87,30.16,10.0,Calm,Calm,-,N/A,,Mostly Cloudy,0,2013-07-30 04:56:00
1:56 AM,78.1,73.9,87,30.14,10.0,Calm,Calm,-,N/A,,Overcast,0,2013-07-30 05:56:00
2:56 AM,77.0,73.9,90,30.14,10.0,Calm,Calm,-,N/A,,Overcast,0,2013-07-30 06:56:00
3:56 AM,75.9,73.9,94,30.13,10.0,WSW,3.5,-,N/A,,Mostly Cloudy,250,2013-07-30 07:56:00
4:56 AM,75.9,73.0,91,30.12,10.0,Calm,Calm,-,N/A,,Mostly Cloudy,0,2013-07-30 08:56:00
5:56 AM,75.0,73.0,94,30.13,9.0,Calm,Calm,-,N/A,,Mostly Cloudy,0,2013-07-30 09:56:00
6:56 AM,75.9,73.0,91,30.15,8.0,Calm,Calm,-,N/A,,Mostly Cloudy,0,2013-07-30 10:56:00
7:56 AM,77.0,75.0,94,30.17,9.0,Calm,Calm,-,N/A,,Partly Cloudy,0,2013-07-30 11:56:00
8:56 AM,82.0,75.0,79,30.18,10.0,NNW,3.5,-,N/A,,Partly Cloudy,330,2013-07-30 12:56:00
9:56 AM,84.9,75.0,72,30.18,10.0,WNW,5.8,-,N/A,,Scattered Clouds,290,2013-07-30 13:56:00
10:56 AM,87.1,75.0,67,30.17,10.0,NW,4.6,-,N/A,,Mostly Cloudy,310,2013-07-30 14:56:00
11:56 AM,90.0,72.0,55,30.17,10.0,SW,4.6,-,N/A,,Mostly Cloudy,230,2013-07-30 15:56:00
12:56 PM,91.0,73.0,55,30.16,10.0,Calm,Calm,-,N/A,,Mostly Cloudy,0,2013-07-30 16:56:00
1:56 PM,93.0,73.0,52,30.14,10.0,NW,5.8,-,N/A,,Mostly Cloudy,320,2013-07-30 17:56:00
2:56 PM,87.1,75.0,67,30.12,10.0,SE,12.7,-,0.00,Rain,Light Rain,130,2013-07-30 18:56:00
3:10 PM,82.4,75.2,79,30.12,6.0,SE,11.5,-,0.01,Rain-Thunderstorm,Light Thunderstorms and Rain,140,2013-07-30 19:10:00
3:29 PM,80.6,75.2,84,30.13,4.0,NNE,12.7,16.1,0.16,Rain-Thunderstorm,Light Thunderstorms and Rain,30,2013-07-30 19:29:00
3:37 PM,78.8,75.2,89,30.13,1.5,NNE,16.1,21.9,0.30,Rain-Thunderstorm,Thunderstorms and Rain,30,2013-07-30 19:37:00
3:51 PM,78.8,75.2,89,30.13,3.0,North,10.4,-,0.45,Rain-Thunderstorm,Heavy Thunderstorms and Rain,360,2013-07-30 19:51:00
3:56 PM,77.0,73.9,90,30.13,3.0,North,10.4,-,0.50,Rain-Thunderstorm,Heavy Thunderstorms and Rain,350,2013-07-30 19:56:00
4:15 PM,78.8,75.2,89,30.12,5.0,West,3.5,-,0.14,Rain-Thunderstorm,Thunderstorms and Rain,260,2013-07-30 20:15:00
4:56 PM,79.0,75.9,90,30.12,9.0,South,4.6,-,0.15,Thunderstorm,Thunderstorm,180,2013-07-30 20:56:00
5:07 PM,78.8,77.0,94,30.11,9.0,South,4.6,-,N/A,,Mostly Cloudy,180,2013-07-30 21:07:00
5:56 PM,79.0,77.0,94,30.11,10.0,SSW,4.6,-,N/A,,Mostly Cloudy,200,2013-07-30 21:56:00
6:56 PM,81.0,77.0,88,30.12,10.0,Calm,Calm,-,N/A,,Mostly Cloudy,0,2013-07-30 22:56:00
7:56 PM,80.1,77.0,90,30.12,8.0,Calm,Calm,-,N/A,,Mostly Cloudy,0,2013-07-30 23:56:00
8:56 PM,79.0,77.0,94,30.13,9.0,NNE,3.5,-,N/A,,Mostly Cloudy,30,2013-07-31 00:56:00
9:56 PM,79.0,77.0,94,30.14,10.0,Calm,Calm,-,N/A,,Mostly Cloudy,0,2013-07-31 01:56:00
10:56 PM,77.0,75.9,96,30.15,6.0,Calm,Calm,-,N/A,,Mostly Cloudy,0,2013-07-31 02:56:00
11:56 PM,77.0,75.9,96,30.14,7.0,Calm,Calm,-,N/A,,Mostly Cloudy,0,2013-07-31 03:56:00